This is the latest recevied weather packets stored in our database for station/object K0NV. If no packets are shown the sender has not sent any weather packets the latest 10 day(s).
| Time | Temp. | Humidity | Pressure | Rain* | Wind** | Luminosity | Snow |
|---|---|---|---|---|---|---|---|
| 1777982131 | 13.89° C | 99% | 1007.2 hPa | 0 mm | - | 32 W/m² | - |
| 1777981829 | 13.89° C | 99% | 1007.4 hPa | 0 mm | - | 29 W/m² | - |
| 1777981525 | 13.89° C | 99% | 1007.2 hPa | 0 mm | - | 20 W/m² | - |
| 1777981222 | 14.44° C | 99% | 1007.2 hPa | 0 mm | - | 19 W/m² | - |
| 1777980918 | 14.44° C | 99% | 1007.2 hPa | 0 mm | - | 12 W/m² | - |
| 1777980615 | 14.44° C | 99% | 1007.2 hPa | 0 mm | - | 6 W/m² | - |
| 1777980310 | 15° C | 99% | 1007.7 hPa | 0 mm | - | 4 W/m² | - |
| 1777980009 | 15° C | 99% | 1007.1 hPa | 0 mm | - | 2 W/m² | - |
| 1777979703 | 15° C | 99% | 1007 hPa | 0 mm | - | 1 W/m² | - |
| 1777979399 | 15° C | 99% | 1007.1 hPa | 1.78 mm | - | 0 W/m² | - |
| 1777979096 | 15° C | 99% | 1007.2 hPa | 1.78 mm | - | 0 W/m² | - |
| 1777978792 | 15° C | 99% | 1006.3 hPa | 0 mm | - | 0 W/m² | - |
| 1777978489 | 15° C | 99% | 1006.6 hPa | 0 mm | - | 0 W/m² | - |
| 1777978185 | 15° C | 99% | 1007.5 hPa | 0 mm | - | 0 W/m² | - |
| 1777977882 | 15° C | 99% | 1007.8 hPa | 0 mm | - | 0 W/m² | - |
| 1777977579 | 15° C | 99% | 1006.9 hPa | 0 mm | - | 0 W/m² | - |
| 1777977277 | 15° C | 99% | 1007.8 hPa | 0 mm | - | 0 W/m² | - |
| 1777976974 | 15° C | 99% | 1007.1 hPa | 1.27 mm | - | 0 W/m² | - |
| 1777976671 | 15° C | 99% | 1007.1 hPa | 1.27 mm | - | 0 W/m² | - |
| 1777976367 | 14.44° C | 99% | 1007.2 hPa | 0 mm | - | 0 W/m² | - |
| 1777976067 | 14.44° C | 99% | 1007.1 hPa | 0 mm | - | 0 W/m² | - |
| 1777975763 | 14.44° C | 99% | 1007.1 hPa | 1.78 mm | - | 0 W/m² | - |
| 1777975460 | 15° C | 99% | 1006.7 hPa | 1.78 mm | - | 0 W/m² | - |
| 1777975155 | 14.44° C | 99% | 1006.5 hPa | 0 mm | - | 0 W/m² | - |
| 1777974853 | 14.44° C | 99% | 1006 hPa | 0 mm | - | 0 W/m² | - |
* Rain latest hour (hover to see other rain measurements)
** Current wind speed in m/s (hover to see current wind gust speed)